Find Starlink 11495

NORAD ID: 62275 Int'l Des: 2024-237 Owner: SPXS Country: US Constellation: starlink operational
LEOCIRCULAR

現在のビュー

3D地球を読み込み中...

Starlink 11495について

説明を読み込み中...

次回通過

Passes for default location (London). Set your location on the main map for personalized predictions.

高度履歴

Loading altitude history...

軌道要素

1 62275U 24237J 26149.74874475 .00186867 00000-0 14269-2 0 9998
2 62275 42.9980 288.6460 0000888 310.2582 49.8208 15.70846238 85744
Epoch: May 29, 2026 • Age: 20 hours

現在のステータス

高度 355.0 km
速度 7.70 km/s
衛星直下点 -0.37°S, 171.87°W
打ち上げ日 Dec 8, 2024
運用期間 1.4 years
タイプ internet

技術仕様

分類 Payload
質量 960.00 kg
乾燥質量 910.00 kg
総質量 960.00 kg
長さ 0.30 m
直径 4.10 m
スパン 29.00 m
形状 Box + pan
製造者 SPXS
バスタイプ Starlink V2MD
フェーズステータス In Orbit
所有者/国 SPXS/US

Most Searched